GW4937 Weather Reports


time (UTC)temp
C
wind
direction
speed
KPH
gust
KPH
rain 1hr
cm
rain 24hr
cm
rain mn
cm
humidity
%
barometer
mb
20260502210556 8 286 9.7 14.5 0.00 0.00 0.00 54 1016.3
20260502210054 7 300 8.0 17.7 0.00 0.00 0.00 54 1016.1
20260502205549 8 283 8.0 11.3 0.00 0.00 0.00 53 1016.0
20260502205047 7 264 1.6 9.7 0.00 0.00 0.00 57 1016.1
20260502204543 7 287 4.8 6.4 0.00 0.00 0.00 57 1016.3
20260502204042 7 20 3.2 6.4 0.00 0.00 0.00 56 1016.3
20260502203538 7 291 8.0 12.9 0.00 0.00 0.00 54 1016.4
20260502203035 7 193 6.4 12.9 0.00 0.00 0.00 54 1016.3
20260502202531 8 337 9.7 12.9 0.00 0.00 0.00 51 1016.3
20260502202030 7 274 6.4 6.4 0.00 0.00 0.00 55 1016.3
20260502201525 7 233 6.4 12.9 0.00 0.00 0.00 54 1016.3
20260502201022 8 301 9.7 12.9 0.00 0.00 0.00 54 1016.4
20260502200518 7 234 9.7 12.9 0.00 0.00 0.00 55 1016.4
20260502200016 7 271 4.8 12.9 0.00 0.00 0.00 54 1016.7
20260502195514 7 281 9.7 16.1 0.00 0.00 0.00 53 1016.6
20260502195009 7 292 6.4 20.9 0.00 0.00 0.00 56 1016.6
20260502194506 7 278 6.4 12.9 0.00 0.00 0.00 55 1016.5
20260502194002 7 291 6.4 12.9 0.00 0.00 0.00 56 1016.6
20260502193500 7 268 9.7 12.9 0.00 0.00 0.00 55 1016.6
20260502192955 7 307 9.7 12.9 0.00 0.00 0.00 55 1016.8
20260502192452 7 290 6.4 9.7 0.00 0.00 0.00 55 1016.7
20260502191949 7 296 8.0 12.9 0.00 0.00 0.00 56 1016.8
20260502191447 7 266 3.2 16.1 0.00 0.00 0.00 57 1016.9
20260502190944 7 329 8.0 20.9 0.00 0.00 0.00 55 1016.7
20260502190441 7 267 8.0 12.9 0.00 0.00 0.00 56 1016.6
20260502185937 7 283 8.0 12.9 0.00 0.00 0.00 56 1016.9
20260502185433 7 261 4.8 9.7 0.00 0.00 0.00 57 1016.7
20260502184930 7 240 3.2 9.7 0.00 0.00 0.00 58 1016.9
20260502184425 7 276 3.2 25.7 0.00 0.00 0.00 56 1016.8
20260502183922 8 266 6.4 11.3 0.00 0.00 0.00 56 1016.9
20260502183419 8 292 8.0 11.3 0.00 0.00 0.00 53 1016.9
20260502182914 8 246 6.4 12.9 0.00 0.00 0.00 55 1016.7
20260502182410 8 262 3.2 12.9 0.00 0.00 0.00 54 1016.8
20260502181906 8 284 8.0 12.9 0.00 0.00 0.00 52 1016.7
20260502181405 7 319 8.0 9.7 0.00 0.00 0.00 53 1017.1
20260502180903 7 283 6.4 12.9 0.00 0.00 0.00 55 1016.9
20260502180359 7 263 6.4 14.5 0.00 0.00 0.00 56 1017.0
20260502170318 7 300 4.8 12.9 0.00 0.00 0.00 55 1017.3
20260502164306 8 6 9.7 12.9 0.00 0.00 0.00 52 1017.2
20260502163801 8 276 1.6 6.4 0.00 0.00 0.00 52 1017.2
20260502163258 7 270 8.0 17.7 0.00 0.00 0.00 52 1017.2
20260502162755 7 292 3.2 12.9 0.00 0.00 0.00 56 1017.3
20260502162252 7 290 8.0 16.1 0.00 0.00 0.00 54 1017.4
20260502161749 7 288 4.8 14.5 0.00 0.00 0.00 54 1017.4
20260502161245 8 337 3.2 6.4 0.00 0.00 0.00 50 1017.5
20260502160743 7 269 9.7 12.9 0.00 0.00 0.00 49 1017.7
20260502160242 7 320 6.4 20.9 0.00 0.00 0.00 50 1017.7
20260502152212 7 301 9.7 12.9 0.00 0.00 0.00 55 1017.7
20260502151709 7 331 8.0 14.5 0.00 0.00 0.00 56 1017.4
20260502151206 7 198 6.4 12.9 0.00 0.00 0.00 53 1017.7
20260502150703 7 330 1.6 12.9 0.00 0.00 0.00 56 1017.7
20260502150200 7 313 6.4 14.5 0.00 0.00 0.00 55 1017.4
20260502140123 7 309 12.9 16.1 0.00 0.00 0.00 60 1017.5
20260502130548 4 278 3.2 6.4 0.00 0.00 0.00 79 1017.5
20260502123532 3 254 3.2 4.8 0.00 0.00 0.00 83 1017.4
20260502123028 3 286 3.2 6.4 0.00 0.00 0.00 83 1017.3
20260502122525 3 264 3.2 3.2 0.00 0.00 0.00 84 1017.5
20260502122023 3 285 3.2 4.8 0.00 0.00 0.00 85 1017.4
20260502121520 3 241 3.2 4.8 0.00 0.00 0.00 85 1017.3
20260502121017 3 268 1.6 3.2 0.00 0.00 0.00 86 1017.2
20260502120513 3 311 0.0 4.8 0.00 0.00 0.00 87 1017.1
20260502115508 3 261 3.2 3.2 0.00 0.00 0.00 88 1017.1
20260502115004 2 264 1.6 3.2 0.00 0.00 0.00 90 1017.4
20260502114501 2 227 0.0 0.0 0.00 0.00 0.00 92 1017.2
20260502113958 2 227 0.0 0.0 0.00 0.00 0.00 94 1017.2
20260502113455 2 227 0.0 0.0 0.00 0.00 0.00 95 1017.2
20260502112954 1 227 0.0 0.0 0.00 0.00 0.00 96 1017.2
20260502112450 1 227 0.0 0.0 0.00 0.00 0.00 96 1017.1
20260502111948 1 227 0.0 0.0 0.00 0.00 0.00 96 1017.2
20260502111445 1 227 0.0 0.0 0.00 0.00 0.00 96 1017.2
20260502110943 1 227 0.0 0.0 0.00 0.00 0.00 96 1017.0
20260502110440 1 227 0.0 0.0 0.00 0.00 0.00 96 1017.1
20260502105937 1 227 0.0 0.0 0.00 0.00 0.00 96 1017.1
20260502105434 1 227 0.0 1.6 0.00 0.00 0.00 96 1016.8
20260502104932 1 227 0.0 0.0 0.00 0.00 0.00 95 1016.8
20260502104430 1 227 0.0 0.0 0.00 0.00 0.00 95 1016.8
20260502103927 1 227 0.0 0.0 0.00 0.00 0.00 94 1016.8
20260502103424 1 277 0.0 0.0 0.00 0.00 0.00 94 1017.0
20260502102921 1 277 0.0 0.0 0.00 0.00 0.00 93 1017.2
20260502102418 1 278 0.0 0.0 0.00 0.00 0.00 93 1017.2
20260502101915 1 278 0.0 0.0 0.00 0.00 0.00 93 1017.1
20260502101414 1 278 0.0 0.0 0.00 0.00 0.00 92 1017.4
20260502100911 1 278 0.0 0.0 0.00 0.00 0.00 92 1017.1
20260502100410 1 278 0.0 0.0 0.00 0.00 0.00 92 1017.1
20260502091343 2 259 1.6 3.2 0.00 0.00 0.00 85 1017.4
20260502090841 2 259 1.6 3.2 0.00 0.00 0.00 84 1017.2
20260502090338 2 253 1.6 1.6 0.00 0.00 0.00 84 1017.5
20260502071233 4 266 3.2 9.7 0.00 0.00 0.00 76 1017.2
20260502070731 4 249 3.2 4.8 0.00 0.00 0.00 76 1017.3
20260502070228 4 307 4.8 6.4 0.00 0.00 0.00 75 1017.4
20260502065726 5 255 4.8 6.4 0.00 0.00 0.00 74 1017.2
20260502065224 5 271 4.8 9.7 0.00 0.00 0.00 73 1017.4
20260502064723 5 273 3.2 3.2 0.00 0.00 0.00 73 1017.4
20260502064220 5 254 1.6 4.8 0.00 0.00 0.00 72 1017.2
20260502063717 5 301 4.8 4.8 0.00 0.00 0.00 70 1017.2
20260502063215 5 266 3.2 3.2 0.00 0.00 0.00 72 1017.3
20260502062712 5 281 0.0 1.6 0.00 0.00 0.00 71 1017.4
20260502062209 5 278 1.6 3.2 0.00 0.00 0.00 69 1017.5
20260502061708 5 292 1.6 4.8 0.00 0.00 0.00 70 1017.8
20260502061205 5 301 1.6 3.2 0.00 0.00 0.00 70 1017.5
20260502060700 5 321 3.2 4.8 0.00 0.00 0.00 68 1017.5
20260502060157 5 323 3.2 4.8 0.00 0.00 0.00 68 1017.5
20260502055654 5 283 3.2 4.8 0.00 0.00 0.00 69 1017.5
20260502055152 5 276 3.2 6.4 0.00 0.00 0.00 70 1017.8
20260502054651 5 291 4.8 6.4 0.00 0.00 0.00 69 1017.5
20260502054148 5 272 0.0 1.6 0.00 0.00 0.00 72 1017.5
20260502053645 5 285 1.6 6.4 0.00 0.00 0.00 72 1017.5
20260502053142 5 263 4.8 9.7 0.00 0.00 0.00 72 1017.8
20260502052641 5 307 6.4 9.7 0.00 0.00 0.00 72 1017.7
20260502052138 5 258 3.2 9.7 0.00 0.00 0.00 72 1017.9
20260502051636 6 307 3.2 9.7 0.00 0.00 0.00 75 1017.5
20260502051134 6 260 3.2 9.7 0.00 0.00 0.00 76 1017.7
20260502050630 6 321 8.0 14.5 0.00 0.00 0.00 74 1017.7
20260502050127 6 267 8.0 16.1 0.00 0.00 0.00 75 1017.9
20260502045623 6 287 8.0 16.1 0.00 0.00 0.00 74 1017.9
20260502045121 6 282 6.4 14.5 0.00 0.00 0.00 80 1018.0
20260502044617 6 259 6.4 9.7 0.00 0.00 0.00 79 1017.9
20260502044114 6 287 17.7 22.5 0.00 0.00 0.00 79 1017.8
20260502043612 6 276 9.7 12.9 0.00 0.00 0.00 78 1017.9
20260502043108 6 239 8.0 16.1 0.00 0.00 0.00 79 1018.0
20260502042608 6 277 6.4 14.5 0.00 0.00 0.00 79 1017.8
20260502042106 6 293 12.9 24.1 0.00 0.00 0.00 82 1017.8
20260502041603 6 292 6.4 11.3 0.00 0.00 0.00 83 1017.9
20260502041100 6 231 6.4 9.7 0.00 0.00 0.00 83 1017.8
20260502040557 6 282 4.8 4.8 0.00 0.00 0.00 83 1017.8
20260502040055 6 33 0.0 9.7 0.00 0.00 0.00 82 1017.7
20260502035550 6 289 3.2 9.7 0.00 0.00 0.00 82 1017.8
20260502035048 7 306 4.8 11.3 0.00 0.00 0.00 81 1017.5
20260502034545 7 284 1.6 4.8 0.00 0.00 0.00 82 1017.7
20260502034044 7 264 3.2 6.4 0.00 0.00 0.00 82 1017.7
20260502033542 7 225 3.2 4.8 0.00 0.00 0.00 81 1017.8
20260502033038 7 314 9.7 11.3 0.00 0.00 0.00 81 1017.9
20260502032534 7 335 4.8 11.3 0.00 0.00 0.00 80 1017.7
20260502032031 7 272 3.2 4.8 0.00 0.00 0.00 81 1017.9
20260502031529 7 241 3.2 11.3 0.00 0.00 0.00 80 1017.9
20260502031027 7 228 8.0 11.3 0.00 0.00 0.00 80 1017.9
20260502030526 7 248 6.4 12.9 0.00 0.00 0.00 79 1017.7
20260502030023 7 266 4.8 6.4 0.00 0.00 0.00 78 1017.9
20260502025520 7 263 8.0 14.5 0.00 0.00 0.00 78 1018.0
20260502025018 7 235 3.2 12.9 0.00 0.00 0.00 78 1017.9
20260502024515 7 313 6.4 17.7 0.00 0.00 0.00 77 1017.7
20260502024014 7 295 3.2 11.3 0.00 0.00 0.00 77 1017.4
20260502023511 7 284 1.6 11.3 0.00 0.00 0.00 77 1017.4
20260502023008 7 282 3.2 6.4 0.00 0.00 0.00 77 1017.7
20260502022505 7 286 3.2 6.4 0.00 0.00 0.00 77 1017.3
20260502022002 7 235 1.6 9.7 0.00 0.00 0.00 75 1017.3
20260502021459 7 244 1.6 6.4 0.00 0.00 0.00 75 1017.2
20260502020955 7 190 6.4 12.9 0.00 0.00 0.00 75 1017.3
20260502020454 7 234 4.8 11.3 0.00 0.00 0.00 75 1017.5
20260502015950 7 271 11.3 17.7 0.00 0.00 0.00 75 1017.2
20260502015448 7 244 9.7 12.9 0.00 0.00 0.00 75 1017.0
20260502014944 7 281 4.8 11.3 0.00 0.00 0.00 76 1016.9
20260502014441 8 302 4.8 11.3 0.00 0.00 0.00 75 1016.6
20260502013938 8 279 4.8 11.3 0.00 0.00 0.00 76 1017.0
20260502013433 8 343 6.4 9.7 0.00 0.00 0.00 75 1016.7
20260502012930 8 267 3.2 9.7 0.00 0.00 0.00 75 1016.6
20260502012428 8 275 4.8 9.7 0.00 0.00 0.00 77 1016.5
20260502011925 8 287 8.0 12.9 0.00 0.00 0.00 76 1016.5
20260502011421 8 277 6.4 17.7 0.00 0.00 0.00 76 1016.4
20260502010919 8 310 4.8 12.9 0.00 0.00 0.00 77 1016.4
20260502010415 8 292 3.2 4.8 0.00 0.00 0.00 77 1016.5
20260502005911 8 289 4.8 11.3 0.00 0.00 0.00 78 1016.3
20260502005410 8 291 1.6 3.2 0.00 0.00 0.00 78 1016.0
20260502004907 8 307 3.2 6.4 0.00 0.00 0.00 77 1016.0
20260502004403 9 282 4.8 4.8 0.00 0.00 0.00 78 1015.9
20260502003900 9 213 0.0 6.4 0.00 0.00 0.00 78 1015.8
20260502003358 9 269 4.8 4.8 0.00 0.00 0.00 78 1015.9
20260502002853 9 261 4.8 12.9 0.00 0.00 0.00 78 1015.6
20260502002351 9 254 1.6 11.3 0.00 0.00 0.00 78 1015.6
20260502001848 9 261 8.0 14.5 0.00 0.00 0.00 78 1015.5
20260502001346 9 285 11.3 14.5 0.00 0.00 0.00 78 1015.5
20260502000843 9 281 3.2 4.8 0.00 0.00 0.00 78 1015.3
20260502000341 9 290 3.2 12.9 0.00 0.00 0.00 77 1015.3
20260501235837 9 343 3.2 11.3 0.00 0.00 0.00 76 1015.1
20260501235333 9 140 3.2 11.3 0.00 0.00 0.00 76 1015.1
20260501234828 10 214 6.4 12.9 0.00 0.00 0.00 75 1015.2
20260501234325 10 260 3.2 4.8 0.00 0.00 0.00 74 1014.8
20260501233824 10 253 4.8 17.7 0.00 0.00 0.00 73 1014.6
20260501233321 11 239 9.7 16.1 0.00 0.00 0.00 69 1014.6
20260501232817 11 309 9.7 12.9 0.00 0.00 0.00 69 1014.4
20260501232314 11 300 6.4 17.7 0.00 0.00 0.00 67 1014.3
20260501231811 11 240 8.0 11.3 0.00 0.00 0.00 66 1014.2
20260501231309 11 265 4.8 14.5 0.00 0.00 0.00 64 1014.2
20260501230808 13 316 4.8 14.5 0.00 0.00 0.00 58 1014.1
20260501230306 13 40 4.8 14.5 0.00 0.00 0.00 54 1013.9
20260501225803 13 273 9.7 12.9 0.00 0.00 0.00 48 1013.9
20260501225301 13 262 8.0 11.3 0.00 0.00 0.00 46 1013.8
20260501224756 14 323 9.7 16.1 0.00 0.00 0.00 46 1013.9
20260501224254 15 224 1.6 9.7 0.00 0.00 0.00 43 1013.9
20260501223750 15 282 11.3 22.5 0.00 0.00 0.00 44 1013.8
20260501223246 15 326 9.7 12.9 0.00 0.00 0.00 41 1013.8
20260501222742 15 176 4.8 6.4 0.00 0.00 0.00 44 1013.7
20260501222240 15 125 4.8 9.7 0.00 0.00 0.00 41 1013.9
20260501221737 15 284 1.6 3.2 0.00 0.00 0.00 44 1013.5
20260501221234 15 266 8.0 11.3 0.00 0.00 0.00 39 1013.5
20260501220731 15 305 9.7 11.3 0.00 0.00 0.00 40 1013.7
20260501220229 15 251 3.2 11.3 0.00 0.00 0.00 41 1013.8
20260501215726 15 153 11.3 14.5 0.00 0.00 0.00 39 1013.7
20260501215221 15 90 1.6 6.4 0.00 0.00 0.00 41 1013.8
20260501214716 15 243 1.6 9.7 0.00 0.00 0.00 37 1013.5
20260501214213 16 163 1.6 12.9 0.00 0.00 0.00 39 1014.0
20260501213709 15 265 1.6 14.5 0.00 0.00 0.00 39 1013.7
20260501213205 15 306 8.0 14.5 0.00 0.00 0.00 37 1013.5
20260501212701 16 204 6.4 14.5 0.00 0.00 0.00 35 1013.4
20260501212158 16 305 6.4 20.9 0.00 0.00 0.00 34 1013.7
20260501211655 17 127 9.7 12.9 0.00 0.00 0.00 34 1013.9
20260501211153 16 133 9.7 11.3 0.00 0.00 0.00 32 1013.8